Hoquiam, WA

11:44 PM PDT on April 26, 2018 (GMT -0700)
Bowerman

Weather History for KHQM - March, 2014

Change the Weather History Date:

Thursday, March 13, 2014

  Actual Average Record
Temperature  
Mean Temperature 46 °F 46 °F  
Max Temperature 53 °F 52 °F 69 °F (1979)
Min Temperature 39 °F 39 °F 30 °F (1954)
Degree Days  
Heating Degree Days 20 19  
Month to date heating degree days 256  
Cooling Degree Days 0 0  
Month to date cooling degree days 0  
Year to date cooling degree days 0  
Moisture  
Dew Point 43 °F    
Average Humidity 91    
Maximum Humidity 100    
Minimum Humidity 69    
Precipitation  
Precipitation 0.31 in 0.23 in 1.42 in (2003)
Month to date precipitation 2.93  
Year to date precipitation 20.47  
Sea Level Pressure  
Sea Level Pressure 30.12 in    
Wind  
Wind Speed 4 mph (SE)    
Max Wind Speed 13 mph    
Max Gust Speed -    
Visibility 4 miles    
Events Rain    
T = Trace of Precipitation, MM = Missing Value Source: NWS Daily Summary

Daily Weather History Graph

Daily Weather History Graph

Search for Another Location

Airport or City:

Astronomy

Mar. 13, 2014 Rise Set
Actual Time 7:32 AM PDT 7:18 PM PDT
Civil Twilight 7:02 AM PDT 7:49 PM PDT
Nautical Twilight 6:26 AM PDT 8:24 PM PDT
Astronomical Twilight 5:50 AM PDT 9:00 PM PDT
Moon 4:42 PM PDT (3/13) 5:51 AM PDT (3/13)
Length of Visible Light 12h 47m
Length of Day
11h 46m
Waxing Gibbous, 92% of the Moon is Illuminated
Mar 13
Waxing Gibbous
Mar 16
Full
Mar 23
Last Quarter
Mar 30
New
Apr 7
First Quarter

Hourly Weather History & Observations

Time (PDT) Temp. Windchill Dew Point Humidity Pressure Visibility Wind Dir Wind Speed Gust Speed Precip Events Conditions
12:53 AM 43.0 °F - 42.1 °F 97% 30.20 in 5.0 mi Calm Calm - N/A   Clear
1:48 AM 42.8 °F - 41.0 °F 93% 30.19 in 4.0 mi Calm Calm - N/A   Scattered Clouds
1:53 AM 44.1 °F - 42.1 °F 93% 30.20 in 4.0 mi Calm Calm - N/A   Mostly Cloudy
2:09 AM 42.1 °F - 41.0 °F 96% 30.19 in 4.0 mi Calm Calm - N/A   Overcast
2:27 AM 43.0 °F - 41.0 °F 93% 30.19 in 4.0 mi Calm Calm - N/A   Scattered Clouds
2:53 AM 41.0 °F - 39.9 °F 96% 30.19 in 4.0 mi Calm Calm - N/A   Clear
3:13 AM 41.0 °F - 39.0 °F 93% 30.18 in 3.0 mi Calm Calm - N/A   Mostly Cloudy
3:27 AM 41.0 °F - 39.9 °F 96% 30.17 in 4.0 mi Calm Calm - N/A   Overcast
3:53 AM 42.1 °F - 39.9 °F 92% 30.17 in 4.0 mi Calm Calm - N/A   Overcast
4:28 AM 41.0 °F 39.0 °F 39.9 °F 96% 30.15 in 2.5 mi ENE 3.5 mph - N/A   Overcast
4:53 AM 41.0 °F 37.1 °F 39.9 °F 96% 30.15 in 3.0 mi NE 5.8 mph - N/A   Overcast
5:53 AM 41.0 °F 37.1 °F 39.9 °F 96% 30.16 in 5.0 mi NE 5.8 mph - N/A   Overcast
6:53 AM 41.0 °F 39.0 °F 39.9 °F 96% 30.17 in 5.0 mi North 3.5 mph - N/A   Overcast
7:50 AM 39.2 °F 34.2 °F 39.2 °F 100% 30.15 in 4.0 mi NE 6.9 mph - N/A   Overcast
7:53 AM 39.9 °F 35.1 °F 39.0 °F 97% 30.16 in 3.0 mi NE 6.9 mph - N/A   Overcast
8:00 AM 39.9 °F 35.8 °F 39.0 °F 97% 30.15 in 2.0 mi NE 5.8 mph - N/A   Overcast
8:10 AM 41.0 °F 36.4 °F 39.0 °F 93% 30.14 in 3.0 mi NE 6.9 mph - N/A   Overcast
8:53 AM 42.1 °F 38.4 °F 41.0 °F 96% 30.16 in 4.0 mi NE 5.8 mph - N/A   Overcast
9:53 AM 45.0 °F 41.2 °F 42.1 °F 90% 30.17 in 4.0 mi East 6.9 mph - N/A   Overcast
10:53 AM 46.9 °F - 45.0 °F 93% 30.17 in 5.0 mi East 11.5 mph - N/A   Mostly Cloudy
11:53 AM 50.0 °F - 43.0 °F 77% 30.14 in 6.0 mi East 10.4 mph - N/A   Haze
12:40 PM 51.1 °F - 42.1 °F 71% 30.13 in 7.0 mi ENE 4.6 mph - N/A   Overcast
12:53 PM 52.0 °F - 42.1 °F 69% 30.14 in 7.0 mi ENE 4.6 mph - N/A   Overcast
1:53 PM 51.1 °F - 44.1 °F 77% 30.14 in 7.0 mi SW 12.7 mph - N/A   Overcast
2:53 PM 50.0 °F - 45.0 °F 83% 30.12 in 8.0 mi WSW 10.4 mph - N/A   Overcast
3:53 PM 50.0 °F - 44.1 °F 80% 30.11 in 7.0 mi SW 11.5 mph - N/A   Overcast
4:53 PM 50.0 °F - 45.0 °F 83% 30.10 in 7.0 mi SSW 5.8 mph - N/A   Mostly Cloudy
5:18 PM 50.0 °F - 45.0 °F 83% 30.08 in 7.0 mi SW 6.9 mph - N/A   Overcast
5:53 PM 50.0 °F - 46.0 °F 86% 30.09 in 5.0 mi SSW 9.2 mph - 0.00 in Rain Light Rain
6:50 PM 48.2 °F - 46.4 °F 93% 30.06 in 3.0 mi SSE 4.6 mph - 0.01 in Rain Light Rain
6:53 PM 48.9 °F - 46.0 °F 90% 30.07 in 3.0 mi SSE 5.8 mph - 0.01 in Rain Light Rain
7:22 PM 48.0 °F - 46.0 °F 93% 30.05 in 5.0 mi SE 4.6 mph - 0.01 in   Overcast
7:53 PM 48.0 °F - 46.0 °F 93% 30.06 in 3.0 mi SSE 3.5 mph - 0.03 in Rain Light Rain
8:08 PM 48.0 °F - 46.9 °F 96% 30.05 in 2.5 mi South 4.6 mph - 0.02 in Rain Light Rain
8:53 PM 48.0 °F - 46.9 °F 96% 30.05 in 3.0 mi ESE 3.5 mph - 0.09 in Rain Light Rain
9:53 PM 48.9 °F - 46.9 °F 93% 30.04 in 5.0 mi South 10.4 mph - 0.04 in Rain Light Rain
10:13 PM 48.9 °F - 48.0 °F 97% 30.03 in 4.0 mi South 9.2 mph - 0.01 in Rain Light Rain
10:31 PM 48.9 °F - 48.0 °F 97% 30.02 in 4.0 mi South 9.2 mph - 0.03 in Rain Light Rain
10:38 PM 48.9 °F - 48.0 °F 97% 30.02 in 4.0 mi South 9.2 mph - 0.04 in Rain Light Rain
10:53 PM 48.9 °F - 48.0 °F 97% 30.04 in 5.0 mi South 11.5 mph - 0.06 in Rain Light Rain
11:53 PM 48.9 °F - 48.0 °F 97% 30.02 in 3.0 mi South 9.2 mph - 0.08 in Rain Light Rain